Dies ist die Übersicht über die aktuellen Messwerte der DWD-Stationen.

Eine Auf/Abwärtssortierung der Messwerte, ist durch einen Klick auf den gewünschten Messwert im Tabellenkopf möglich (z.B. Klick auf "Temperatur 2m in °C" ändert Sortierung auf/absteigend). Die Messzeiten sind in UTC angegeben. Bei Sommerzeit sind 2 Stunden hinzu zu rechnen, bei Winterzeit 1 Stunde. Beispielsweise ist 14 UHR UTC = 15 Uhr Winterzeit bzw. 16 Uhr Sommerzeit. Die Messwerte werden jeweils zur 50igsten Minute vom DWD-Server geladen. Also jeweils 00:50 Uhr, 01:50 Uhr, 02:50, usw...

Station letzte Meldung Temperatur 2m in °C Taupunkt 2m in °C Feuchte 2m in % Temperatur 5cm in °C Mittelwind in km/h Spitzenböen in km/h Windrichtung in ° Luftdruck in hpa Sonnenscheindauer in Minuten Niederschlag in mm Sichtweite in km Neuschnee in cm Schneehöhe Gesamt in cm
Ahaus 19:00 06.5 03.6 82.0 05.6 24.0 42.0 330 1020.9 01 00.2 00.0
Alfeld 19:00 05.5 03.8 89.0 04.9 03.0 12.0 110 1019.2 00 00.0 00.0
Altenstadt 19:00 02.0 00.2 88.0 14.0 240
Andernach 19:00 08.4 03.1 69.0 07.4 08.0 23.0 270 1020.9 00 00.0 00.0
Angermünde 19:00 01.5 -01.4 81.0 -00.9 05.0 12.0 060 1019.7 00 00.0 00.0
Arkona 19:00 03.2 -00.5 77.0 00.9 10.0 14.0 250 1019.6 07 00.0 00.0
Artern 19:00 04.8 02.5 85.0 03.9 06.0 14.0 030 1019.4 00.0 00.0
Augsburg 19:00 04.7 00.8 76.0 02.2 05.0 11.0 290 1020.6 00 00.0 00.0
Bamberg 19:00 06.5 01.6 71.0 03.1 05.0 21.0 290 1019.4 00 00.0 00.0
Barth 19:00 03.1 00.4 82.0 00.5 05.0 07.0 140 1019.3 00.0 00.0
Baruth 19:00 06.1 00.4 67.0 05.8 05.0 13.0 070 1019.0 00.0 00.0
Belm 19:00 05.9 05.1 95.0 05.7 04.0 06.0 240 1019.7 00 00.0 00.0
Bergen 19:00 06.0 01.3 72.0 04.0 080 1019.1
Berlin-Dahlem (FU) 19:00 06.3 -00.6 61.0 11.0 070 1019.2 00
Berlin-Schönefeld 19:00 05.1 -00.4 68.0 04.0 12.0 21.0 080 1019.1 00 00.0
Berlin-Tegel 19:00
Berlin-Tempelhof 19:00 05.6 -00.5 65.0 04.7 15.0 21.0 070 1019.0 00.0 00.0
Berus 19:00 05.2 00.9 74.0 03.9 08.0 31.0 310 1022.7 10 00.0 00.0
Boizenburg 19:00 04.6 01.7 81.0 02.5 08.0 11.0 240 1019.1 00 00.0 00.0
Boltenhagen 19:00 05.5 -00.6 65.0 03.2 04.0 06.0 120 1018.9 00 00.0 00.0
Bonn-Roleber 19:00 07.1 04.0 81.0 06.4 16.0 32.0 280 1021.1 00.1 00.0
Braunlage 19:00 01.1 00.1 93.0 00.0 07.0 13.0 080 1019.7 00.0 00.0
Braunschweig 19:00 03.8 02.5 91.0 01.3 03.0 09.0 110 1019.4 06 00.0 00.0
Bremen 19:00 07.5 -00.9 55.0 05.8 19.0 27.0 340 1019.4 07 00.0
Bremerhaven 19:00 06.6 03.0 78.0 06.4 27.0 38.0 340 1019.4 00 00.0 00.0
Bremervörde 19:00 05.8 00.4 68.0 02.7 06.0 18.0 330 1019.2 00 00.0 00.0
Brocken 19:00 -02.0 -02.4 97.0 -00.1 13.0 22.0 010 00 00.0 06.0
Büchel (Flugplatz) 19:00 04.5 00.2 74.0 11.0 280 1021.4
Bückeburg 19:00 05.9 03.5 85.0 11.0 270 1018.9
Carlsfeld 19:00 -00.8 -01.7 94.0 00.0 03.0 17.0 330 00 00.1 19.0
Celle 19:00 06.6 01.1 68.0 11.0 070 1019.1
Chieming 19:00 02.2 00.8 90.0 02.0 10.0 18.0 210 1021.4 00 00.0 00.0
Cottbus 19:00 05.0 00.3 72.0 03.9 05.0 08.0 050 1019.0 00 00.0 00.0
Cuxhaven 19:00 05.6 01.5 75.0 05.3 34.0 54.0 300 1019.4 00 00.0 00.0
Deuselbach 19:00 04.1 00.7 79.0 03.2 14.0 21.0 290 1022.3 00 00.0
Diepholz 19:00 07.6 03.5 75.0 06.5 06.0 12.0 310 1019.3 00 00.0 00.0
Doberlug-Kirchhain 19:00 05.9 -00.7 63.0 04.3 11.0 19.0 280 1019.0 00 00.1 00.0
Dörnick 19:00 06.5 00.6 66.0 05.5 09.0 18.0 320 1018.6 00 00.0 00.0
Dresden-Klotzsche 19:00 04.0 01.2 82.0 03.8 07.0 18.0 130 1019.2 00 00.0 00.0
Düsseldorf 19:00 07.0 05.2 88.0 06.1 12.0 22.0 290 1021.1 00 00.4
Eisenach 19:00 03.4 02.0 91.0 03.8 05.0 30.0 020 1020.1 00 01.1 00.0
Elpersbüttel 19:00 05.0 01.6 79.0 04.9 22.0 36.0 330 1019.0 00 00.0 00.0
Emden 19:00 06.3 01.0 69.0 04.3 22.0 37.0 330 1020.8 00 00.0 00.0
Erfurt-Weimar 19:00 04.6 01.7 81.0 03.9 06.0 12.0 090 1019.4 00.0 00.0
Essen-Bredeney 19:00 06.4 04.7 89.0 05.7 08.0 24.0 310 1020.8 00 00.0 00.0
Faßberg 19:00 03.7 00.7 81.0 00.0 000 1019.1
Fehmarn 19:00 06.5 02.7 77.0 06.3 04.0 07.0 150 1018.8 00 00.0 00.0
Feldberg/Mecklenburg 19:00 01.3 -02.1 78.0 -01.5 07.0 12.0 070 1019.6 00 00.0 00.0
Feldberg/Schwarzwald 19:00 -02.7 -03.3 96.0 00.1 27.0 37.0 010 00 00.1
Feuchtwangen-Heilbronn 19:00 03.9 01.6 85.0 03.4 18.0 29.0 280 1021.0 00.0 00.0
Fichtelberg 19:00 -03.0 -03.5 96.0 -00.1 08.0 28.0 300 00 02.2 24.0
Frankfurt/Main 19:00 06.6 02.6 76.0 05.4 12.0 27.0 310 1021.0 03 00.0 00.0
Freiburg 19:00 05.5 04.0 90.0 04.9 03.0 11.0 310 1023.3 00 00.0 00.0
Freudenstadt 19:00 00.7 -00.3 93.0 00.6 10.0 35.0 340 00 00.1 00.0
Friesoythe-Altenoythe 19:00 04.7 03.5 92.0 04.6 20.0 41.0 350 1020.3 00 02.7 00.0
Fritzlar (Flugplatz) 19:00 05.1 02.8 85.0 04.0 000 1019.8
Fürstenzell 19:00 03.2 01.9 91.0 02.9 09.0 29.0 310 1020.2 00 00.0 00.0
Gardelegen 19:00 04.7 03.7 93.0 04.2 03.0 06.0 210 1019.6 00 00.0 00.0
Garmisch-Partenkirchen 19:00 02.0 00.5 90.0 01.6 03.0 06.0 180 1022.0 00 00.0 00.0
Geilenkirchen (Flugplatz) 19:00 06.4 04.9 90.0 14.0 290 1022.4
Geisenheim 19:00 05.7 03.0 83.0 03.9 10.0 16.0 280 1021.3 00 00.0 00.0
Gelbelsee 19:00 03.2 01.4 88.0 01.5 05.0 08.0 140 1020.4 00 00.0 00.0
Genthin 19:00 04.8 00.6 74.0 02.6 04.0 11.0 240 1019.2 00 00.0 00.0
Gera-Leumnitz 19:00 03.2 01.9 91.0 03.0 00.0 07.0 000 1019.7 00 00.0 00.0
Gießen/Wettenberg 19:00 04.8 03.2 89.0 04.3 10.0 18.0 250 1020.5 02 00.0 00.0
Glücksburg-Meierwik 19:00 03.8 02.6 92.0 07.0 260 1018.8
Goldberg 19:00 04.2 -02.0 64.0 -00.5 04.0 09.0 060 1019.3 00.0 00.0
Görlitz 19:00 01.9 01.3 96.0 -00.2 02.0 07.0 320 1019.2 00 00.0 00.0
Gottfrieding 19:00 03.9 01.7 86.0 03.3 11.0 15.0 240 1020.4 00 00.0 00.0
Göttingen 19:00 04.8 03.7 93.0 04.6 06.0 12.0 170 1019.5 00 00.0 00.0
Greifswald 19:00 02.0 -01.8 76.0 -00.4 07.0 09.0 140 1019.5 00 00.0 00.0
Greifswalder Oie 19:00 03.4 -03.2 62.0 -01.7 06.0 09.0 090 1019.6 00.0 00.0
Großer Arber 19:00 -03.8 -04.0 99.0 23.0 34.0 350 00 00.9 46.0
Grünow 19:00 02.1 -01.2 79.0 00.1 08.0 14.0 100 1019.6 00.0 00.0
Hahn 19:00 04.7 00.3 73.0 03.8 09.0 22.0 290 1021.8 11 00.0 00.0
Hamburg-Fuhlsbüttel 19:00 06.2 01.4 71.0 04.9 07.0 17.0 270 1018.9 00 00.0
Hannover 19:00 06.5 02.8 77.0 04.4 09.0 15.0 120 1019.1 00 00.0 00.0
Harburg 19:00 05.6 00.1 68.0 04.5 21.0 31.0 310 1020.2 00.0 00.0
Harzgerode 19:00 01.9 01.2 95.0 01.3 03.0 12.0 280 1019.7 00 00.1 00.0
Helgoland 19:00 06.4 -01.0 59.0 05.4 35.0 45.0 330 1019.6 00 00.0 00.0
Hersfeld, Bad 19:00 04.4 03.3 93.0 04.5 03.0 10.0 200 1020.1 00 00.1 00.0
Hof 19:00 02.0 00.0 87.0 01.6 05.0 10.0 030 1020.2 00 00.0 00.0
Hohenpeißenberg 19:00 00.3 -01.0 91.0 -00.2 06.0 22.0 280 00 00.9 00.0
Hoherodskopf/Vogelsberg 19:00 01.3 00.8 96.0 01.1 11.0 23.0 270 1020.4 00 00.0 00.0
Hohn 19:00 05.0 01.8 80.0 22.0 320 1019.0
Holzdorf (Flugplatz) 19:00 05.7 00.5 69.0 07.0 310 1018.8
Hoyerswerda 19:00 01.7 01.7 100.0 -00.2 02.0 04.0 120 1019.1 00.0 00.0
Idar-Oberstein 19:00 05.9 00.7 69.0 04.0 340 1021.8
Ingolstadt (Flugplatz) 19:00 05.0 02.2 82.0 04.0 210 1020.3
Itzehoe 19:00 05.8 03.1 83.0 05.2 02.0 09.0 050 1018.8 00.0
Kahler Asten 19:00 -00.2 -00.4 99.0 00.0 12.0 28.0 290 00 00.8 02.0
Kaisersbach-Cronhütte 19:00 02.7 01.0 89.0 02.7 06.0 13.0 240 1022.1 00.0 00.0
Kempten 19:00 02.3 00.2 86.0 01.8 08.0 21.0 170 1021.9 00 00.0 00.0
Kiel-Holtenau 19:00 05.4 02.8 83.0 04.5 10.0 21.0 360 1018.7 00.0 00.0
Kissingen, Bad 19:00 05.9 01.3 72.0 05.4 21.0 33.0 280 1019.7 00 00.0 00.0
Kleiner Feldberg/Taunus 19:00 00.7 00.6 99.0 00.8 12.0 33.0 310 00 00.0 00.0
Klippeneck 19:00 00.4 -00.1 96.0 00.6 12.0 21.0 300 00 00.0 00.0
Köln-Bonn 19:00 06.4 04.6 88.0 06.0 23.0 40.0 310 1021.3 00 00.6
Konstanz 19:00 04.3 02.7 89.0 04.2 03.0 13.0 230 1022.6 00 00.0 00.0
Kümmersbruck 19:00 03.3 00.8 84.0 04.0 270 1020.1
Kyritz 19:00 04.6 00.0 72.0 01.6 04.0 09.0 040 1019.2 00 00.0 00.0
Laage (Flugplatz) 19:00 03.6 -00.8 73.0 07.0 080 1019.1
Lahr 19:00 05.4 04.0 91.0 05.0 08.0 13.0 190 1023.1 00 00.0 00.0
Laupheim 19:00 04.9 -00.7 67.0 04.0 360 1021.1
Lautertal-Oberlauter 19:00 05.3 00.1 69.0 03.2 08.0 16.0 340 1019.2 00 00.0 00.0
Lechfeld 19:00 04.2 -00.6 71.0 07.0 240 1020.8
Leck 19:00 03.3 02.2 92.0 02.2 07.0 13.0 160 1018.9 00 00.6 00.0
Leinefelde 19:00 03.3 02.2 92.0 03.1 08.0 15.0 260 1019.5 00 00.0 00.0
Leipzig-Holzhausen 19:00 04.9 02.8 86.0 04.4 05.0 11.0 340 1019.3 00.0 00.0
Leipzig/Halle 19:00 03.7 02.1 89.0 03.8 03.0 15.0 300 1019.4 00 00.1 00.0
Leutkirch-Herlazhofen 19:00 02.8 01.6 92.0 02.2 09.0 16.0 180 1021.9 00.0 00.0
Lichtenhain-Mittelndorf 19:00 01.7 -00.4 86.0 -00.3 04.0 09.0 030 1019.4 00 00.0 00.0
Lindenberg 19:00 04.1 -01.6 66.0 02.0 08.0 16.0 060 1019.3 00 00.0 00.0
Lippspringe, Bad 19:00 04.0 03.0 93.0 03.7 09.0 22.0 140 1019.6 00 01.7 00.0
List auf Sylt 19:00 05.3 00.1 69.0 03.9 23.0 37.0 330 1018.3 00 00.0 00.0
Lübeck-Blankensee 19:00 05.1 -00.1 69.0 01.3 06.0 11.0 130 1018.9 00 00.0 00.0
Lüchow 19:00 04.4 02.1 85.0 01.6 06.0 08.0 210 1019.3 00 00.0 00.0
Lüdenscheid 19:00
Lügde-Paenbruch 19:00 03.3 02.8 97.0 03.2 08.0 20.0 190 1019.6 00 01.8 00.0
Magdeburg 19:00 04.7 03.1 89.0 03.4 03.0 05.0 320 1019.4 00 00.0 00.0
Mannheim 19:00 05.6 04.2 91.0 05.1 00.0 14.0 000 1021.8 16 00.0 00.0
Manschnow 19:00 04.0 -01.2 69.0 01.2 04.0 11.0 040 1019.5 01 00.0 00.0
Marienberg 19:00 00.7 -00.9 89.0 00.0 10.0 19.0 290 1019.7 00.0 02.0
Marienberg, Bad 19:00 03.0 01.9 92.0 02.8 13.0 26.0 280 1020.6 00 00.7 00.0
Marnitz 19:00 03.0 -00.4 78.0 00.5 00.0 10.0 000 1019.3 00.0 00.0
Meiningen 19:00 04.1 01.4 83.0 03.4 09.0 24.0 310 1019.6 00 00.0 00.0
Meßstetten 19:00 00.7 -00.2 94.0 00.5 08.0 14.0 330 00 00.3 00.0
Michelstadt-Vielbrunn 19:00 02.3 01.6 95.0 00.8 09.0 14.0 250 1021.6 00 00.0 00.0
Mühlacker 19:00 03.4 02.0 91.0 01.6 04.0 10.0 290 1022.4 00.0 00.0
Mühldorf 19:00 02.7 01.4 91.0 02.2 00.0 28.0 000 1021.1 00 00.2 00.0
München-Flughafen 19:00 03.4 00.8 83.0 02.8 12.0 25.0 270 1021.0 00 00.9 00.0
München-Stadt 19:00 03.9 01.5 84.0 03.2 06.0 14.0 200 1020.6 00 00.0 00.0
Münster/Osnabrück 19:00 05.1 04.0 93.0 05.3 06.0 36.0 300 1020.4 00 03.9 00.0
Neu-Ulrichstein 19:00 03.8 03.1 95.0 03.6 09.0 23.0 270 1020.3 00 00.9 00.0
Neuburg/Donau (Flugplatz) 19:00 05.2 02.4 82.0 04.0 140 1020.4
Neuhaus am Rennweg 19:00 00.0 -01.3 91.0 -03.3 03.0 08.0 340 00.0 06.0
Neuhütten/Spessart 19:00 03.0 02.3 95.0 01.6 06.0 16.0 210 1021.1 00 00.0 00.0
Niederstetten 19:00 03.4 02.3 92.0 14.0 250 1021.1
Norderney 19:00 07.0 -00.3 60.0 06.6 44.0 59.0 350 1020.6 00 00.0 00.0
Nordholz (Flugplatz) 19:00 04.8 01.4 79.0 18.0 350 1019.3
Nörvenich (Flugplatz) 19:00 06.9 04.1 82.0 18.0 270 1021.5
Nürburg-Barweiler 19:00 04.7 01.2 78.0 04.4 15.0 34.0 290 1021.7 00 00.0 00.0
Nürnberg 19:00 04.4 01.6 82.0 03.4 11.0 13.0 130 1019.9 00 00.0 00.0
Oberstdorf 19:00 01.1 00.1 93.0 00.8 08.0 11.0 150 00 00.0 00.0
Offenbach-Wetterpark 19:00 05.7 03.4 85.0 04.9 04.0 13.0 220 1021.1 00.1
Öhringen 19:00 04.7 03.5 92.0 04.2 08.0 18.0 250 1021.7 00 00.0 00.0
Oschatz 19:00 05.3 01.9 79.0 04.8 13.0 26.0 300 1019.2 00 00.0 00.0
Osterfeld 19:00 04.4 02.7 89.0 04.1 06.0 12.0 330 1019.7 00.0 00.0
Pelzerhaken 19:00 06.8 00.4 64.0 05.8 09.0 13.0 130 1018.8 00.0 00.0
Plauen 19:00 02.9 00.4 84.0 02.7 04.0 08.0 250 1020.1 00.0 00.0
Potsdam 19:00 06.1 00.8 69.0 05.3 03.0 17.0 220 1018.9 00 00.0 00.0
Putbus 19:00 01.4 -01.9 79.0 -01.5 03.0 07.0 350 1019.5 00.0 00.0
Quickborn 19:00 06.1 02.8 79.0 04.7 02.0 18.0 280 1018.8 00.0 00.0
Regensburg 19:00 03.4 02.0 91.0 02.2 03.0 11.0 310 1020.4 00 00.0 00.0
Rheinstetten 19:00 05.0 03.6 91.0 04.6 13.0 21.0 200 1022.3 00 00.1 00.0
Rostock-Warnemünde 19:00 06.1 00.9 69.0 05.0 07.0 11.0 190 1019.0 00 00.0 00.0
Roth 19:00 04.5 01.6 81.0 03.6 09.0 13.0 160 1020.2 00.0 00.0
Saarbrücken-Ensheim 19:00 06.0 01.0 70.0 04.1 13.0 22.0 320 1022.2 01 00.0
Salzuflen, Bad 19:00 04.2 03.6 96.0 04.4 04.0 08.0 250 1019.7 00.0 00.0
Sankt Peter-Ording 19:00 03.8 03.1 95.0 04.0 05.0 11.0 170 1019.2 00 02.1 00.0
Schauenburg-Elgershausen 19:00 03.9 02.7 92.0 03.6 02.0 15.0 280 1019.9 00 00.0 00.0
Schleiz 19:00 01.7 00.9 94.0 01.4 04.0 07.0 160 1020.2 00.0 00.0
Schleswig 19:00 03.7 02.2 90.0 03.6 18.0 32.0 300 1019.3 00 00.3 00.0
Schleswig-Jagel 19:00 03.9 01.9 87.0 22.0 310 1019.1
Schmücke 19:00 00.2 -01.1 91.0 -00.1 06.0 13.0 350 00 00.0 16.0
Schönhagen (Ostseebad) 19:00 05.0 03.1 88.0 04.6 07.0 24.0 340 1019.1 00.1 00.0
Schwerin 19:00 04.0 -01.2 69.0 00.9 03.0 11.0 010 1019.2 00.0 00.0
Seehausen 19:00 05.6 01.1 73.0 04.7 12.0 17.0 250 1019.2 00.0 00.0
Soltau 19:00 06.3 00.7 67.0 04.1 05.0 13.0 110 1019.1 08 00.0 00.0
Stötten 19:00 01.3 00.7 96.0 01.1 20.0 36.0 280 1021.7 00 00.1
Straubing 19:00 04.3 02.4 87.0 03.8 09.0 16.0 260 1020.1 00 00.0 00.0
Stuttgart (Schnarrenberg) 19:00 04.7 02.3 84.0 04.4 09.0 28.0 280 1022.1 00 00.0 00.0
Stuttgart-Echterdingen 19:00 04.7 01.5 80.0 04.2 15.0 29.0 260 1021.3 00.1 00.0
Tholey 19:00 06.3 -00.3 63.0 05.0 14.0 32.0 320 1022.0 10 00.0 00.0
Trier-Petrisberg 19:00 07.2 00.7 63.0 05.9 11.0 29.0 320 1022.2 09 00.0 00.0
Trollenhagen 19:00 02.4 -02.1 72.0 -01.2 08.0 10.0 080 1019.6 00 00.0
Ueckermünde 19:00 02.2 -02.3 72.0 -01.3 02.0 13.0 080 1019.4 02 00.0 00.0
UFS Deutsche Bucht 19:00 06.5 -00.2 62.0 36.0 54.0 330 1019.8
UFS TW Ems 19:00 04.8 01.5 79.0 36.0 76.0 320 1021.3
Ulm-Mähringen 19:00 03.1 00.9 85.0 02.4 13.0 30.0 300 1021.4 00 00.0 00.0
Ummendorf 19:00 03.6 02.5 93.0 01.7 04.0 08.0 030 1019.5 00.0 00.0
Waibstadt 19:00 03.9 03.1 95.0 03.5 04.0 11.0 220 1022.2 00.0 00.0
Waldmünchen 19:00 02.6 00.0 83.0 01.0 06.0 13.0 220 1020.2 00 00.0 00.0
Warburg 19:00 04.8 03.3 90.0 04.5 06.0 16.0 300 1019.7 00.0 00.0
Waren (Müritz) 19:00 04.2 -01.3 67.0 00.3 04.0 12.0 070 1019.3 06 00.0 00.0
Wasserkuppe 19:00 -00.1 -00.6 96.0 -00.3 11.0 23.0 350 00 01.4 05.0
Weiden 19:00 02.3 00.0 85.0 00.4 03.0 07.0 170 1020.3 00 00.0 00.0
Weihenstephan-Dürnast 19:00 03.1 01.5 89.0 02.8 04.0 24.0 270 1021.0 00 01.1 00.0
Weinbiet 19:00 03.4 01.9 90.0 03.2 11.0 18.0 350 1022.0 12 00.0 00.0
Weißenburg-Emetzheim 19:00 05.2 01.3 76.0 03.4 09.0 16.0 290 1020.2 00 00.0 00.0
Werl 19:00 06.0 04.1 88.0 05.6 02.0 18.0 200 1020.2 00 00.4 00.0
Wernigerode 19:00 04.0 01.3 83.0 02.3 06.0 11.0 230 1019.6 00.0 00.0
Wiesenburg 19:00 04.6 01.0 77.0 04.5 04.0 14.0 320 1019.3 00.0 00.0
Wittenberg 19:00 05.4 02.4 81.0 05.3 06.0 15.0 300 1019.1 00 00.0 00.0
Wittmundhafen 19:00 06.0 01.7 74.0 18.0 330 1020.1
Wunsiedel-Schönbrunn 19:00 01.7 -00.4 86.0 -00.8 03.0 23.0 020 1020.2 00.0 00.0
Wunstorf 19:00 07.3 02.4 71.0 04.0 000 1018.9
Würzburg 19:00 05.6 03.0 83.0 04.9 12.0 28.0 310 1021.1 03 00.2 00.0
Zinnwald-Georgenfeld 19:00 -01.2 -02.4 92.0 -01.5 10.0 21.0 330 00 00.0 07.0
Zugspitze 19:00 -13.5 -14.1 95.0 21.0 31.0 350 00